Weather History for Fairbanks Ft. Wainwright, AK

Change the Weather History Date:

Thursday, December 12, 2013

  Actual Average Record
Temperature  
Mean Temperature 2 °F -  
Max Temperature 3 °F 0 °F 28 °F (2011)
Min Temperature 1 °F -7 °F -16 °F (2008)
Degree Days  
Heating Degree Days 63    
Moisture  
Dew Point -11 °F    
Average Humidity 55    
Maximum Humidity 66    
Minimum Humidity 47    
Precipitation  
Precipitation 0.00 in - - ()
Snow  
Snow 0.00 in - - ()
Snow Depth 13.00 in    
Sea Level Pressure  
Sea Level Pressure 29.96 in    
Wind  
Wind Speed 16 mph (ENE)    
Max Wind Speed 23 mph    
Max Gust Speed 31 mph    
Visibility 9 miles    
Events Snow    
Averages and records for this station are not official NWS values.
T = Trace of Precipitation, MM = Missing Value Source: NWS Daily Summary

Daily Weather History Graph

Daily Weather History Graph

Search for Another Location

Airport:

Trip Planner

Search our weather history database for the weather conditions in past years. The results will help you decide how hot, cold, wet, or windy it might be!

Date:

Astronomy

Dec. 12, 2013 Rise Set
Actual Time 10:47 AM AKST 2:41 PM AKST
Civil Twilight 9:24 AM AKST 4:04 PM AKST
Nautical Twilight 8:13 AM AKST 5:15 PM AKST
Astronomical Twilight 7:11 AM AKST 6:17 PM AKST
Moon 1:28 PM AKST (12/12) 4:38 AM AKST (12/12)
Length of Visible Light 6h 40m
Length of Day
3h 54m
Waxing Gibbous, 81% of the Moon is Illuminated
Dec 12
Waxing Gibbous
Dec 17
Full
Dec 25
Last Quarter
Jan 1
New
Jan 7
First Quarter

Hourly Weather History & Observations

Time (AKST) Temp. Windchill Dew Point Humidity Pressure Visibility Wind Dir Wind Speed Gust Speed Precip Events Conditions
12:56 AM 1.9 °F -11.8 °F -11.0 °F 55% 30.09 in 10.0 mi ENE 8.1 mph - N/A   Clear
1:56 AM 3.0 °F -16.1 °F -9.9 °F 55% 30.06 in 10.0 mi ENE 16.1 mph 21.9 mph N/A   Clear
2:56 AM 3.9 °F -11.3 °F -9.9 °F 53% 30.05 in 10.0 mi ENE 10.4 mph 17.3 mph N/A   Clear
4:56 AM 3.9 °F -13.7 °F -9.9 °F 53% 30.02 in 10.0 mi NE 13.8 mph 25.3 mph N/A   Clear
5:56 AM 3.0 °F -17.8 °F -11.0 °F 52% 30.01 in 9.0 mi ENE 19.6 mph 31.1 mph N/A   Clear
6:27 AM 1.4 °F -19.4 °F -11.2 °F 56% 29.96 in 10.0 mi NE 18.4 mph 29.9 mph N/A   Partly Cloudy
6:55 AM 1.4 °F -19.4 °F -11.2 °F 56% 30.01 in 10.0 mi NE 18.4 mph 25.3 mph N/A   Partly Cloudy
7:55 AM 1.4 °F -19.9 °F -11.2 °F 56% 29.99 in 10.0 mi ENE 19.6 mph 28.8 mph N/A   Partly Cloudy
8:55 AM 1.4 °F -19.9 °F -11.2 °F 56% 29.99 in 10.0 mi ENE 19.6 mph 29.9 mph N/A   Scattered Clouds
9:55 AM 1.4 °F -19.4 °F -11.2 °F 56% 29.98 in 10.0 mi ENE 18.4 mph 26.5 mph N/A   Scattered Clouds
10:55 AM 1.4 °F -17.6 °F -11.2 °F 56% 29.98 in 10.0 mi ENE 15.0 mph 25.3 mph N/A   Mostly Cloudy
11:55 AM 1.4 °F -19.9 °F -11.2 °F 56% 29.96 in 10.0 mi ENE 19.6 mph 31.1 mph N/A   Mostly Cloudy
12:55 PM 1.4 °F -17.6 °F -11.2 °F 56% 29.96 in 10.0 mi ENE 15.0 mph 25.3 mph N/A   Mostly Cloudy
1:55 PM 1.4 °F -21.0 °F -13.0 °F 51% 29.94 in 10.0 mi ENE 21.9 mph 29.9 mph N/A   Mostly Cloudy
2:55 PM 1.4 °F -18.8 °F -13.0 °F 51% 29.94 in 25.0 mi ENE 17.3 mph 25.3 mph N/A   Mostly Cloudy
3:55 PM 1.4 °F -18.2 °F -13.0 °F 51% 29.91 in 13.0 mi NE 16.1 mph 25.3 mph N/A   Mostly Cloudy
4:55 PM 1.4 °F -21.0 °F -13.0 °F 51% 29.91 in 7.0 mi ENE 21.9 mph 31.1 mph N/A   Mostly Cloudy
5:55 PM 1.4 °F -19.4 °F -13.0 °F 51% 29.91 in 7.0 mi ENE 18.4 mph 31.1 mph N/A   Mostly Cloudy
6:55 PM 1.4 °F -21.4 °F -14.8 °F 47% 29.91 in 7.0 mi NE 23.0 mph 31.1 mph N/A   Mostly Cloudy
7:55 PM 1.4 °F -18.2 °F -13.0 °F 51% 29.91 in 7.0 mi NE 16.1 mph 28.8 mph N/A   Overcast
8:07 PM 1.4 °F -18.8 °F -13.0 °F 51% 29.86 in 6.0 mi NE 17.3 mph 24.2 mph N/A Snow Light Snow
8:55 PM 1.4 °F -19.9 °F -9.4 °F 61% 29.90 in 5.0 mi NE 19.6 mph 27.6 mph N/A Snow Light Snow
9:55 PM 1.4 °F -18.2 °F -7.6 °F 66% 29.90 in 3.0 mi ENE 16.1 mph 27.6 mph N/A Snow Light Snow
10:56 PM 1.9 °F -19.2 °F -9.9 °F 58% 29.88 in 7.0 mi ENE 19.6 mph 25.3 mph 0.00 in Snow Light Snow
11:56 PM 1.9 °F -16.9 °F -9.9 °F 58% 29.88 in 6.0 mi ENE 15.0 mph 24.2 mph 0.00 in   Haze